Lone Oak, Texas
Current Conditions -  °F | °C
As of 8:35 PM on Sunday 21 Dec 2014 (Local Time) from KGVT Reporting Station
Overcast Overcast  
Wind Chill: 50°   Ceiling: 1400
Heat Index: 50°   Visibility: 10mi
Dew Point: 45°   Wind: 12mph
Humidity: 82%   Direction: 160°SSE
Pressure: 29.84"   Gusts: NA
Location:  33°N, 95.94°W
Report Text: KGVT 220235Z AUTO 16010KT 10SM OVC014 10/07 A2984 RMK AO2
Loading
Personal Weather Stations






























Interactive Weather Map New forecast layout! Learn more

10-Day Weather Forecast

Advertisements
Track Severe Weather on mobile